Location: Maddington
(51.2000°N, 1.9167°W)
Time: 16:40:37
(UTC+00:00)

Cosmos 1125 Rocket - Pass Details

Date: 25 June 2021
Orbit: 757 x 780 km, 74.0° (Epoch: 28 July)

Event Time Altitude Azimuth Distance (km) Brightness Sun altitude
Rises 03:04:25 0° 323° (NW) 3,251 6.9 -6.2°
Reaches altitude 10° 03:07:39 10° 302° (WNW) 2,323 5.9 -5.9°
Maximum altitude 03:10:46 16° 266° (W) 1,929 5.2 -5.5°
Drops below altitude 10° 03:13:54 10° 229° (SW) 2,321 5.3 -5.2°
Enters shadow 03:15:13 - 219° (SW) 2,659 5.6 -5.1°
